CZ-6A DEB, 56591

Orbit data source: Space-Track

CZ-6A DEB, 56591 is space debris in SSO originally from a launch on Fri, 11 Nov 2022 UTC launched from the Taiyaun Space Center, China (TSC). Debris objects in space refer to the collection of defunct objects orbiting the Earth. Examples of debris include non-operational satellites, rocket bodies, and fragments generated from explosions, collisions, or faulty payload assembly.

Loading next visibility...
Identifier
56591, 2022-151ADP
Orbit
SSO
Country
Flag of CNCN / PRC
Related business
Manufacturer
SAST
Mission
Spacecraft
Bus & Motor
Unknown
Mass
Unknown
Launch date (UTC)
2022-11-11 (4 years ago)
Launch vehicle
Unknown
Launch site
Taiyaun Space Center, China (TSC)
Object type
Payload
Rocket body
Debris
Shape & HBR
Unknown shape, 0.1 m
Radar Cross Section
Small (<0.1 m²)

Expand to show TLE details & history
Last TLE update: 3 days ago

TLE from 3 days ago
0 CZ-6A DEB
1 56591U 22151ADP 26170.01661250  .00000063  00000-0  11213-3 0  9994
2 56591  99.1001  92.0768 0288372 296.3452  60.8341 13.57804483156222
Epoch: 2026-06-19T00:23Z
TLE epoch observation values (Epoch: 2026-06-19T00:23:55.320Z)
Latitude
-0.00005°
Longitude
178.84467°
Altitude
946.986 km
Speed
7.428 km/s
True Right ascension
06h 08m 18s
True Declination
0° 00' 00"
Sunlit
Object was in daylight at epoch
Visualization orbit readout
Latitude
Unknown
Longitude
Unknown
Altitude
Unknown
Speed
Unknown
Apparent Right ascension
Unknown
Apparent Declination
Unknown
Sunlit
N/A
Visualization observer readout
Local Sidereal Time
21:23:32
Azimuth
Unknown
Elevation
Unknown
Doppler factor
Unknown
Orbital elements
Apogee altitude
1,254.885 km
Perigee altitude
826.994 km
Semi-major axis
7,419.076 km
Eccentricity
0.02884
Inclination
99.1001°
RAAN
92.0768°
Arg. of periapsis
296.3452°
True anomaly
63.7699°
Mean anomaly
60.8341°
Eccentric anomaly
62.29695°
Mean motion
3.3964 °/min
Orbital period
105.99 mins
BSTAR
0.00011213
Loading maneuver chart data...
Computing Atmospheric mass density...
Loading historical data...
Loading historical data...
Loading historical data...
Loading historical data...
Loading historical data...
Loading historical data...
Loading historical data...

Documentation

Showing up to 5 results
|